Time,TemperatureF,DewpointF,PressureIn,WindDirection,WindDirectionDegrees,WindSpeedMPH,WindSpeedGustMPH,Humidity,HourlyPrecipIn,Conditions,Clouds,dailyrainin,SoftwareType,DateUTC
2013-11-01 00:00:00,59.9,59.4,29.87,SSE,153,6.0,13.0,98,0.05,,,0.23,meteohub,2013-11-01 04:00:00,
2013-11-01 00:01:00,59.9,59.4,29.87,NW,308,2.0,13.0,98,0.05,,,0.23,meteohub,2013-11-01 04:01:00,
2013-11-01 00:04:00,59.9,59.0,29.87,SW,232,9.0,13.0,97,0.05,,,0.23,meteohub,2013-11-01 04:04:00,
2013-11-01 00:09:00,59.9,59.4,29.87,SW,231,4.0,13.0,98,0.05,,,0.23,meteohub,2013-11-01 04:09:00,
2013-11-01 00:14:00,59.9,59.4,29.87,East,86,2.0,13.0,98,0.05,,,0.23,meteohub,2013-11-01 04:14:00,
2013-11-01 00:19:00,60.1,59.5,29.87,South,169,4.0,13.0,98,0.05,,,0.23,meteohub,2013-11-01 04:19:00,
2013-11-01 00:24:00,60.1,59.2,29.86,WSW,256,11.0,13.0,97,0.05,,,0.23,meteohub,2013-11-01 04:24:00,
2013-11-01 00:29:00,60.1,59.2,29.85,ESE,109,1.0,14.0,97,0.05,,,0.24,meteohub,2013-11-01 04:29:00,
2013-11-01 00:34:00,59.9,59.0,29.84,ESE,108,8.0,14.0,97,0.05,,,0.24,meteohub,2013-11-01 04:34:00,
2013-11-01 00:39:00,59.9,59.0,29.82,SSE,156,9.0,14.0,97,0.04,,,0.24,meteohub,2013-11-01 04:39:00,
2013-11-01 00:44:00,59.7,58.8,29.82,SW,217,10.0,16.0,97,0.04,,,0.25,meteohub,2013-11-01 04:44:00,
2013-11-01 00:49:00,59.7,58.8,29.82,ESE,112,4.0,20.0,97,0.05,,,0.26,meteohub,2013-11-01 04:49:00,
2013-11-01 00:54:00,59.7,58.8,29.83,SSW,210,6.0,20.0,97,0.06,,,0.28,meteohub,2013-11-01 04:54:00,
2013-11-01 00:59:00,59.7,58.6,29.82,South,180,2.0,20.0,96,0.06,,,0.28,meteohub,2013-11-01 04:59:00,
2013-11-01 01:04:00,59.7,58.6,29.83,South,191,4.0,23.0,96,0.06,,,0.29,meteohub,2013-11-01 05:04:00,
2013-11-01 01:09:00,59.5,58.5,29.84,ESE,103,9.0,23.0,96,0.07,,,0.30,meteohub,2013-11-01 05:09:00,
2013-11-01 01:14:00,59.5,58.6,29.84,South,189,3.0,23.0,97,0.08,,,0.31,meteohub,2013-11-01 05:14:00,
2013-11-01 01:19:00,59.5,58.6,29.83,East,91,6.0,16.0,97,0.08,,,0.31,meteohub,2013-11-01 05:19:00,
2013-11-01 01:24:00,59.5,58.5,29.80,East,98,6.0,14.0,96,0.08,,,0.31,meteohub,2013-11-01 05:24:00,
2013-11-01 01:30:00,59.5,58.5,29.79,ESE,121,10.0,22.0,96,0.07,,,0.31,meteohub,2013-11-01 05:30:00,
2013-11-01 01:35:00,59.4,58.3,29.80,SSW,210,5.0,22.0,96,0.07,,,0.31,meteohub,2013-11-01 05:35:00,
2013-11-01 01:40:00,59.4,58.3,29.81,SE,138,10.0,22.0,96,0.07,,,0.31,meteohub,2013-11-01 05:40:00,
2013-11-01 01:45:00,59.5,58.5,29.78,SE,139,7.0,17.0,96,0.05,,,0.31,meteohub,2013-11-01 05:45:00,
2013-11-01 01:50:00,59.4,58.3,29.80,SE,134,5.0,21.0,96,0.03,,,0.31,meteohub,2013-11-01 05:50:00,
2013-11-01 01:55:00,59.4,58.3,29.80,SSW,212,6.0,21.0,96,0.02,,,0.31,meteohub,2013-11-01 05:55:00,
2013-11-01 02:00:00,59.4,58.5,29.81,WNW,294,2.0,14.0,97,0.02,,,0.31,meteohub,2013-11-01 06:00:00,
2013-11-01 02:05:00,59.4,58.5,29.81,WSW,256,4.0,12.0,97,0.01,,,0.31,meteohub,2013-11-01 06:05:00,
2013-11-01 02:10:00,59.2,58.3,29.80,SSW,205,2.0,12.0,97,0.00,,,0.31,meteohub,2013-11-01 06:10:00,
2013-11-01 02:15:00,59.2,58.3,29.79,WNW,297,3.0,12.0,97,0.00,,,0.31,meteohub,2013-11-01 06:15:00,
2013-11-01 02:20:00,59.2,58.3,29.80,WNW,294,2.0,12.0,97,0.00,,,0.31,meteohub,2013-11-01 06:20:00,
2013-11-01 02:25:00,59.4,58.3,29.80,SSW,208,3.0,12.0,96,0.00,,,0.31,meteohub,2013-11-01 06:25:00,
2013-11-01 02:30:00,58.3,57.2,29.80,SE,136,0.0,10.0,96,0.00,,,0.31,meteohub,2013-11-01 06:30:00,
2013-11-01 02:35:00,59.2,58.3,29.81,SE,136,0.0,10.0,97,0.00,,,0.31,meteohub,2013-11-01 06:35:00,
2013-11-01 09:38:00,56.3,55.2,29.79,North,-999,-999.0,-999.0,96,-99.99,,,0.31,meteohub,2013-11-01 13:38:00,
2013-11-01 09:43:00,56.1,55.0,29.79,North,-999,-999.0,-999.0,96,0.01,,,0.32,meteohub,2013-11-01 13:43:00,
2013-11-01 09:48:00,56.1,55.0,29.78,SSE,150,0.0,0.0,96,0.02,,,0.33,meteohub,2013-11-01 13:48:00,
2013-11-01 09:53:00,56.5,55.6,29.78,East,97,0.0,1.0,97,0.02,,,0.33,meteohub,2013-11-01 13:53:00,
2013-11-01 09:58:00,56.5,55.6,29.78,SE,143,0.0,1.0,97,0.02,,,0.33,meteohub,2013-11-01 13:58:00,
2013-11-01 10:03:00,56.7,55.8,29.78,ESE,111,0.0,1.0,97,0.02,,,0.33,meteohub,2013-11-01 14:03:00,
2013-11-01 10:08:00,56.5,55.6,29.78,SE,134,0.0,1.0,97,0.02,,,0.33,meteohub,2013-11-01 14:08:00,
2013-11-01 10:13:00,56.8,56.3,29.78,SE,134,0.0,1.0,98,0.02,,,0.33,meteohub,2013-11-01 14:13:00,
2013-11-01 10:18:00,57.6,56.5,29.78,SE,136,0.0,1.0,96,0.02,,,0.33,meteohub,2013-11-01 14:18:00,
2013-11-01 10:23:00,58.3,57.2,29.78,SE,126,2.0,2.0,96,0.02,,,0.33,meteohub,2013-11-01 14:23:00,
2013-11-01 10:28:00,58.6,56.7,29.78,East,95,0.0,2.0,93,0.02,,,0.33,meteohub,2013-11-01 14:28:00,
2013-11-01 10:33:00,59.2,57.4,29.78,East,84,0.0,2.0,94,0.02,,,0.33,meteohub,2013-11-01 14:33:00,
2013-11-01 10:38:00,59.5,57.6,29.78,ESE,114,0.0,2.0,93,0.02,,,0.33,meteohub,2013-11-01 14:38:00,
2013-11-01 10:43:00,60.1,58.1,29.77,ESE,123,1.0,2.0,93,0.01,,,0.33,meteohub,2013-11-01 14:43:00,
2013-11-01 10:48:00,60.6,58.6,29.77,NNE,30,0.0,3.0,93,0.00,,,0.33,meteohub,2013-11-01 14:48:00,
2013-11-01 10:53:00,61.5,59.5,29.77,SSW,195,0.0,3.0,93,0.00,,,0.33,meteohub,2013-11-01 14:53:00,
2013-11-01 10:58:00,62.4,60.1,29.77,WSW,248,6.0,6.0,92,0.00,,,0.33,meteohub,2013-11-01 14:58:00,
2013-11-01 11:03:00,62.2,58.3,29.77,West,276,4.0,7.0,87,0.00,,,0.33,meteohub,2013-11-01 15:03:00,
2013-11-01 11:08:00,62.2,58.3,29.77,West,280,0.0,8.0,87,0.00,,,0.33,meteohub,2013-11-01 15:08:00,
2013-11-01 11:13:00,63.0,59.0,29.77,NNW,334,0.0,8.0,87,0.00,,,0.33,meteohub,2013-11-01 15:13:00,
2013-11-01 11:18:00,63.3,59.4,29.77,SE,142,2.0,7.0,87,0.00,,,0.33,meteohub,2013-11-01 15:18:00,
2013-11-01 11:23:00,64.2,59.0,29.77,SSE,151,1.0,7.0,83,0.00,,,0.33,meteohub,2013-11-01 15:23:00,
2013-11-01 11:28:00,64.8,59.9,29.76,South,191,2.0,7.0,84,0.00,,,0.33,meteohub,2013-11-01 15:28:00,
2013-11-01 11:33:00,65.7,60.1,29.76,South,190,0.0,7.0,82,0.00,,,0.33,meteohub,2013-11-01 15:33:00,
2013-11-01 11:38:00,65.5,58.8,29.75,NW,309,4.0,5.0,79,0.00,,,0.33,meteohub,2013-11-01 15:38:00,
2013-11-01 11:43:00,64.6,57.9,29.76,SW,229,0.0,9.0,79,0.00,,,0.33,meteohub,2013-11-01 15:43:00,
2013-11-01 11:48:00,64.8,57.4,29.75,North,8,0.0,9.0,77,0.00,,,0.33,meteohub,2013-11-01 15:48:00,
2013-11-01 11:54:00,65.7,57.9,29.75,SSW,207,0.0,9.0,76,0.00,,,0.33,meteohub,2013-11-01 15:54:00,
2013-11-01 11:59:00,67.6,59.7,29.75,ESE,106,3.0,5.0,76,0.00,,,0.33,meteohub,2013-11-01 15:59:00,
2013-11-01 12:04:00,67.5,58.5,29.74,ESE,122,4.0,5.0,73,0.00,,,0.33,meteohub,2013-11-01 16:04:00,
2013-11-01 12:09:00,67.1,56.1,29.74,West,271,2.0,5.0,68,0.00,,,0.33,meteohub,2013-11-01 16:09:00,
2013-11-01 12:14:00,66.4,57.0,29.74,SE,146,2.0,6.0,72,0.00,,,0.33,meteohub,2013-11-01 16:14:00,
2013-11-01 12:19:00,67.1,57.7,29.73,SE,140,0.0,6.0,72,0.00,,,0.33,meteohub,2013-11-01 16:19:00,
2013-11-01 12:24:00,68.2,57.6,29.74,SSE,166,0.0,6.0,69,0.00,,,0.33,meteohub,2013-11-01 16:24:00,
2013-11-01 12:29:00,68.4,57.7,29.73,SE,134,1.0,6.0,69,0.00,,,0.33,meteohub,2013-11-01 16:29:00,
2013-11-01 12:34:00,67.6,56.7,29.73,SE,134,4.0,6.0,68,0.00,,,0.33,meteohub,2013-11-01 16:34:00,
2013-11-01 12:39:00,67.8,58.1,29.73,SE,136,2.0,6.0,71,0.00,,,0.33,meteohub,2013-11-01 16:39:00,
2013-11-01 12:44:00,67.6,57.6,29.73,West,262,3.0,7.0,70,0.00,,,0.33,meteohub,2013-11-01 16:44:00,
2013-11-01 12:49:00,68.7,57.4,29.73,SE,128,4.0,8.0,67,0.00,,,0.33,meteohub,2013-11-01 16:49:00,
2013-11-01 12:54:00,69.1,58.1,29.72,SSE,163,3.0,8.0,68,0.00,,,0.33,meteohub,2013-11-01 16:54:00,
2013-11-01 12:59:00,69.4,58.8,29.72,SE,143,2.0,8.0,69,0.00,,,0.33,meteohub,2013-11-01 16:59:00,
2013-11-01 13:04:00,69.3,57.0,29.72,West,267,1.0,8.0,65,0.00,,,0.33,meteohub,2013-11-01 17:04:00,
2013-11-01 13:09:00,69.4,58.5,29.72,SW,235,3.0,8.0,68,0.00,,,0.33,meteohub,2013-11-01 17:09:00,
2013-11-01 13:14:00,69.1,58.5,29.71,SE,131,0.0,8.0,69,0.00,,,0.33,meteohub,2013-11-01 17:14:00,
2013-11-01 13:19:00,69.6,58.6,29.72,West,266,8.0,8.0,68,0.00,,,0.33,meteohub,2013-11-01 17:19:00,
2013-11-01 13:24:00,68.5,57.2,29.71,ESE,121,1.0,7.0,67,0.00,,,0.33,meteohub,2013-11-01 17:24:00,
2013-11-01 13:30:00,68.7,57.7,29.71,South,183,4.0,9.0,68,0.00,,,0.33,meteohub,2013-11-01 17:30:00,
2013-11-01 13:35:00,68.2,57.6,29.71,SE,127,4.0,9.0,69,0.00,,,0.33,meteohub,2013-11-01 17:35:00,
2013-11-01 13:40:00,68.4,58.6,29.70,ESE,106,2.0,9.0,71,0.00,,,0.33,meteohub,2013-11-01 17:40:00,
2013-11-01 13:45:00,68.2,58.1,29.70,East,79,6.0,9.0,70,0.00,,,0.33,meteohub,2013-11-01 17:45:00,
2013-11-01 13:50:00,67.8,58.1,29.70,SE,127,3.0,8.0,71,0.00,,,0.33,meteohub,2013-11-01 17:50:00,
2013-11-01 13:55:00,68.2,59.2,29.69,East,91,0.0,8.0,73,0.00,,,0.33,meteohub,2013-11-01 17:55:00,
2013-11-01 14:00:00,68.2,58.5,29.69,West,264,4.0,9.0,71,0.00,,,0.33,meteohub,2013-11-01 18:00:00,
2013-11-01 14:05:00,68.2,59.2,29.69,WSW,250,6.0,9.0,73,0.00,,,0.33,meteohub,2013-11-01 18:05:00,
2013-11-01 14:10:00,68.7,59.0,29.69,WNW,285,0.0,9.0,71,0.00,,,0.33,meteohub,2013-11-01 18:10:00,
2013-11-01 14:15:00,68.9,59.2,29.69,ESE,122,3.0,9.0,71,0.00,,,0.33,meteohub,2013-11-01 18:15:00,
2013-11-01 14:20:00,69.1,59.4,29.69,NW,316,6.0,6.0,71,0.00,,,0.33,meteohub,2013-11-01 18:20:00,
2013-11-01 14:25:00,68.9,59.9,29.69,WNW,294,1.0,7.0,73,0.00,,,0.33,meteohub,2013-11-01 18:25:00,
2013-11-01 14:30:00,68.9,59.5,29.68,SW,224,5.0,11.0,72,0.00,,,0.33,meteohub,2013-11-01 18:30:00,
2013-11-01 14:36:00,68.4,59.0,29.68,SW,229,4.0,11.0,72,0.00,,,0.33,meteohub,2013-11-01 18:36:00,
2013-11-01 14:41:00,67.6,59.0,29.67,ESE,115,7.0,10.0,74,0.00,,,0.33,meteohub,2013-11-01 18:41:00,
2013-11-01 14:46:00,67.3,59.0,29.67,SSW,212,2.0,10.0,75,0.00,,,0.33,meteohub,2013-11-01 18:46:00,
2013-11-01 14:51:00,68.0,60.1,29.67,SE,130,4.0,12.0,76,0.00,,,0.33,meteohub,2013-11-01 18:51:00,
2013-11-01 14:56:00,68.5,59.5,29.66,SE,124,6.0,12.0,73,0.00,,,0.33,meteohub,2013-11-01 18:56:00,
2013-11-01 15:01:00,68.5,59.5,29.66,SE,138,1.0,11.0,73,0.00,,,0.33,meteohub,2013-11-01 19:01:00,
2013-11-01 15:06:00,69.1,60.4,29.66,SSW,203,4.0,11.0,74,0.00,,,0.33,meteohub,2013-11-01 19:06:00,
2013-11-01 15:11:00,69.1,60.1,29.66,SE,146,7.0,10.0,73,0.00,,,0.33,meteohub,2013-11-01 19:11:00,
2013-11-01 15:17:00,68.4,59.0,29.66,ENE,62,3.0,10.0,72,0.00,,,0.33,meteohub,2013-11-01 19:17:00,
2013-11-01 15:22:00,68.5,59.2,29.65,East,101,5.0,10.0,72,0.00,,,0.33,meteohub,2013-11-01 19:22:00,
2013-11-01 15:27:00,69.3,59.5,29.65,SSW,210,2.0,10.0,71,0.00,,,0.33,meteohub,2013-11-01 19:27:00,
2013-11-01 15:32:00,69.1,59.4,29.65,WNW,284,3.0,6.0,71,0.00,,,0.33,meteohub,2013-11-01 19:32:00,
2013-11-01 15:37:00,68.9,59.2,29.64,SE,144,3.0,9.0,71,0.00,,,0.33,meteohub,2013-11-01 19:37:00,
2013-11-01 15:42:00,69.1,59.7,29.64,East,99,6.0,9.0,72,0.00,,,0.33,meteohub,2013-11-01 19:42:00,
2013-11-01 15:47:00,70.0,59.4,29.64,WSW,249,2.0,8.0,69,0.00,,,0.33,meteohub,2013-11-01 19:47:00,
2013-11-01 15:52:00,69.8,59.9,29.64,East,84,0.0,8.0,71,0.00,,,0.33,meteohub,2013-11-01 19:52:00,
2013-11-01 15:57:00,69.6,59.7,29.64,SE,129,0.0,8.0,71,0.00,,,0.33,meteohub,2013-11-01 19:57:00,
2013-11-01 16:02:00,69.3,59.5,29.64,South,170,1.0,6.0,71,0.00,,,0.33,meteohub,2013-11-01 20:02:00,
2013-11-01 16:07:00,69.4,60.4,29.64,SE,146,2.0,8.0,73,0.00,,,0.33,meteohub,2013-11-01 20:07:00,
2013-11-01 16:12:00,69.4,59.5,29.64,East,79,3.0,8.0,71,0.00,,,0.33,meteohub,2013-11-01 20:12:00,
2013-11-01 16:17:00,68.7,59.4,29.64,SE,127,4.0,7.0,72,0.00,,,0.33,meteohub,2013-11-01 20:17:00,
2013-11-01 16:22:00,68.5,59.5,29.64,SSE,152,0.0,7.0,73,0.00,,,0.33,meteohub,2013-11-01 20:22:00,
2013-11-01 16:27:00,69.1,59.4,29.64,SW,229,5.0,7.0,71,0.00,,,0.33,meteohub,2013-11-01 20:27:00,
2013-11-01 16:32:00,68.4,59.0,29.65,WNW,282,6.0,7.0,72,0.00,,,0.33,meteohub,2013-11-01 20:32:00,
2013-11-01 16:37:00,68.2,59.5,29.65,East,90,0.0,9.0,74,0.00,,,0.33,meteohub,2013-11-01 20:37:00,
2013-11-01 16:42:00,68.5,59.2,29.65,SSE,150,0.0,9.0,72,0.00,,,0.33,meteohub,2013-11-01 20:42:00,
2013-11-01 16:47:00,68.4,59.7,29.65,SSE,149,6.0,10.0,74,0.00,,,0.33,meteohub,2013-11-01 20:47:00,
2013-11-01 16:52:00,68.0,60.1,29.65,NW,308,2.0,10.0,76,0.00,,,0.33,meteohub,2013-11-01 20:52:00,
2013-11-01 16:57:00,67.3,59.9,29.66,SE,136,2.0,10.0,77,0.00,,,0.33,meteohub,2013-11-01 20:57:00,
2013-11-01 17:02:00,66.6,59.5,29.65,South,188,2.0,12.0,78,0.00,,,0.33,meteohub,2013-11-01 21:02:00,
2013-11-01 17:07:00,66.7,59.7,29.66,SSE,163,4.0,12.0,78,0.00,,,0.33,meteohub,2013-11-01 21:07:00,
2013-11-01 17:12:00,66.6,59.9,29.66,SSE,156,5.0,9.0,79,0.00,,,0.33,meteohub,2013-11-01 21:12:00,
2013-11-01 17:17:00,66.6,59.9,29.66,ESE,115,7.0,9.0,79,0.00,,,0.33,meteohub,2013-11-01 21:17:00,
2013-11-01 17:22:00,66.4,59.7,29.65,WNW,288,0.0,11.0,79,0.00,,,0.33,meteohub,2013-11-01 21:22:00,
2013-11-01 17:27:00,66.2,59.9,29.65,SE,138,0.0,11.0,80,0.00,,,0.33,meteohub,2013-11-01 21:27:00,
2013-11-01 17:32:00,65.5,59.5,29.65,SW,225,3.0,11.0,81,0.00,,,0.33,meteohub,2013-11-01 21:32:00,
2013-11-01 17:37:00,64.9,59.4,29.65,East,88,0.0,6.0,82,0.00,,,0.33,meteohub,2013-11-01 21:37:00,
2013-11-01 17:42:00,64.6,59.0,29.65,West,259,1.0,6.0,82,0.00,,,0.33,meteohub,2013-11-01 21:42:00,
2013-11-01 17:47:00,63.9,58.6,29.65,SSE,158,0.0,6.0,83,0.00,,,0.33,meteohub,2013-11-01 21:47:00,
2013-11-01 17:52:00,63.1,58.3,29.65,SE,127,0.0,5.0,84,0.00,,,0.33,meteohub,2013-11-01 21:52:00,
2013-11-01 17:57:00,62.6,58.1,29.65,SSE,153,0.0,3.0,85,0.00,,,0.33,meteohub,2013-11-01 21:57:00,
2013-11-01 18:02:00,62.1,57.7,29.65,SSE,163,0.0,4.0,86,0.00,,,0.33,meteohub,2013-11-01 22:02:00,
2013-11-01 18:07:00,61.5,57.6,29.66,South,172,0.0,4.0,87,0.00,,,0.33,meteohub,2013-11-01 22:07:00,
2013-11-01 18:12:00,61.2,57.6,29.66,SSE,148,0.0,4.0,88,0.00,,,0.33,meteohub,2013-11-01 22:12:00,
2013-11-01 18:17:00,61.0,57.7,29.66,SE,141,2.0,6.0,89,0.00,,,0.33,meteohub,2013-11-01 22:17:00,
2013-11-01 18:22:00,60.6,57.4,29.66,SSE,158,1.0,6.0,89,0.00,,,0.33,meteohub,2013-11-01 22:22:00,
2013-11-01 18:27:00,60.4,57.6,29.66,South,183,1.0,6.0,90,0.00,,,0.33,meteohub,2013-11-01 22:27:00,
2013-11-01 18:32:00,60.3,57.4,29.66,SE,126,0.0,5.0,90,0.00,,,0.33,meteohub,2013-11-01 22:32:00,
2013-11-01 18:37:00,59.9,57.2,29.66,SE,136,1.0,4.0,91,0.00,,,0.33,meteohub,2013-11-01 22:37:00,
2013-11-01 18:42:00,59.7,57.0,29.67,ESE,121,0.0,5.0,91,0.00,,,0.33,meteohub,2013-11-01 22:42:00,
2013-11-01 18:47:00,59.5,57.2,29.67,East,96,2.0,5.0,92,0.00,,,0.33,meteohub,2013-11-01 22:47:00,
2013-11-01 18:52:00,59.4,57.0,29.67,SE,138,3.0,5.0,92,0.00,,,0.33,meteohub,2013-11-01 22:52:00,
2013-11-01 18:57:00,59.2,57.2,29.67,East,100,2.0,3.0,93,0.00,,,0.33,meteohub,2013-11-01 22:57:00,
2013-11-01 19:02:00,59.2,57.2,29.67,East,80,0.0,3.0,93,0.00,,,0.33,meteohub,2013-11-01 23:02:00,
2013-11-01 19:07:00,58.8,56.8,29.68,SE,125,1.0,3.0,93,0.00,,,0.33,meteohub,2013-11-01 23:07:00,
2013-11-01 19:12:00,58.8,56.8,29.68,SE,124,0.0,4.0,93,0.00,,,0.33,meteohub,2013-11-01 23:12:00,
2013-11-01 19:17:00,58.5,56.5,29.68,SE,133,0.0,4.0,93,0.00,,,0.33,meteohub,2013-11-01 23:17:00,
2013-11-01 19:22:00,58.3,56.3,29.68,SSW,204,0.0,4.0,93,0.00,,,0.33,meteohub,2013-11-01 23:22:00,
2013-11-01 19:27:00,58.1,56.1,29.68,ESE,117,0.0,5.0,93,0.00,,,0.33,meteohub,2013-11-01 23:27:00,
2013-11-01 19:32:00,57.7,55.9,29.68,West,279,1.0,5.0,94,0.00,,,0.33,meteohub,2013-11-01 23:32:00,
2013-11-01 19:37:00,57.6,55.8,29.69,ENE,72,0.0,5.0,94,0.00,,,0.33,meteohub,2013-11-01 23:37:00,
2013-11-01 19:42:00,57.4,55.6,29.69,ENE,72,0.0,4.0,94,0.00,,,0.33,meteohub,2013-11-01 23:42:00,
2013-11-01 19:47:00,56.8,55.4,29.69,ENE,72,0.0,4.0,95,0.00,,,0.33,meteohub,2013-11-01 23:47:00,
2013-11-01 19:52:00,56.5,55.0,29.69,East,79,0.0,0.0,95,0.00,,,0.33,meteohub,2013-11-01 23:52:00,
2013-11-01 19:57:00,56.1,55.0,29.69,East,91,0.0,0.0,96,0.00,,,0.33,meteohub,2013-11-01 23:57:00,
2013-11-01 20:02:00,55.9,54.9,29.70,East,91,0.0,0.0,96,0.00,,,0.33,meteohub,2013-11-02 00:02:00,
2013-11-01 20:07:00,55.8,54.9,29.70,East,91,0.0,0.0,97,0.00,,,0.00,meteohub,2013-11-02 00:07:00,
2013-11-01 20:12:00,55.6,54.7,29.70,East,91,0.0,0.0,97,0.00,,,0.00,meteohub,2013-11-02 00:12:00,
2013-11-01 20:17:00,55.4,54.5,29.70,East,92,0.0,0.0,97,0.00,,,0.00,meteohub,2013-11-02 00:17:00,
2013-11-01 20:22:00,55.0,54.1,29.70,East,92,0.0,0.0,97,0.00,,,0.00,meteohub,2013-11-02 00:22:00,
2013-11-01 20:28:00,54.9,54.0,29.71,East,91,0.0,0.0,97,0.00,,,0.00,meteohub,2013-11-02 00:28:00,
2013-11-01 20:33:00,54.7,54.1,29.71,East,91,0.0,0.0,98,0.00,,,0.00,meteohub,2013-11-02 00:33:00,
2013-11-01 20:38:00,54.7,54.1,29.71,East,94,0.0,0.0,98,0.00,,,0.00,meteohub,2013-11-02 00:38:00,
2013-11-01 20:43:00,54.5,54.0,29.71,East,93,0.0,0.0,98,0.00,,,0.00,meteohub,2013-11-02 00:43:00,
2013-11-01 20:48:00,54.1,53.6,29.71,East,94,0.0,0.0,98,0.00,,,0.00,meteohub,2013-11-02 00:48:00,
2013-11-01 20:53:00,54.0,53.4,29.71,East,93,0.0,0.0,98,0.00,,,0.00,meteohub,2013-11-02 00:53:00,
2013-11-01 20:58:00,53.8,53.2,29.72,East,93,0.0,0.0,98,0.00,,,0.00,meteohub,2013-11-02 00:58:00,
2013-11-01 21:03:00,53.6,53.1,29.72,East,93,0.0,0.0,98,0.00,,,0.00,meteohub,2013-11-02 01:03:00,
2013-11-01 21:08:00,53.6,53.2,29.72,East,93,0.0,0.0,99,0.00,,,0.00,meteohub,2013-11-02 01:08:00,
2013-11-01 21:13:00,53.8,53.4,29.72,East,94,0.0,0.0,99,0.00,,,0.00,meteohub,2013-11-02 01:13:00,
2013-11-01 21:18:00,53.8,53.4,29.72,North,10,0.0,1.0,99,0.00,,,0.00,meteohub,2013-11-02 01:18:00,
2013-11-01 21:23:00,53.8,53.4,29.72,North,11,0.0,1.0,99,0.00,,,0.00,meteohub,2013-11-02 01:23:00,
2013-11-01 21:28:00,53.6,53.2,29.72,NNE,12,0.0,0.0,99,0.00,,,0.00,meteohub,2013-11-02 01:28:00,
2013-11-01 21:33:00,53.2,52.9,29.72,NNE,12,0.0,0.0,99,0.00,,,0.00,meteohub,2013-11-02 01:33:00,
2013-11-01 21:38:00,52.9,52.5,29.72,NE,42,0.0,0.0,99,0.00,,,0.00,meteohub,2013-11-02 01:38:00,
2013-11-01 21:43:00,52.5,52.0,29.72,NE,44,0.0,0.0,98,0.00,,,0.00,meteohub,2013-11-02 01:43:00,
2013-11-01 21:48:00,52.3,52.0,29.72,NE,44,0.0,0.0,99,0.00,,,0.00,meteohub,2013-11-02 01:48:00,
2013-11-01 21:53:00,52.2,51.8,29.72,NE,44,0.0,0.0,99,0.00,,,0.00,meteohub,2013-11-02 01:53:00,
2013-11-01 21:58:00,52.2,51.8,29.72,NE,43,0.0,0.0,99,0.00,,,0.00,meteohub,2013-11-02 01:58:00,
2013-11-01 22:03:00,52.2,51.8,29.72,NE,43,0.0,0.0,99,0.00,,,0.00,meteohub,2013-11-02 02:03:00,
2013-11-01 22:08:00,52.0,51.6,29.72,NE,43,0.0,0.0,99,0.00,,,0.00,meteohub,2013-11-02 02:08:00,
2013-11-01 22:13:00,51.8,51.4,29.73,NE,43,0.0,0.0,99,0.00,,,0.00,meteohub,2013-11-02 02:13:00,
2013-11-01 22:18:00,51.4,51.1,29.73,NNE,15,0.0,0.0,99,0.00,,,0.00,meteohub,2013-11-02 02:18:00,
2013-11-01 22:23:00,51.1,50.7,29.73,East,84,0.0,0.0,99,0.00,,,0.00,meteohub,2013-11-02 02:23:00,
2013-11-01 22:28:00,50.7,50.2,29.73,NNE,15,0.0,0.0,98,0.00,,,0.00,meteohub,2013-11-02 02:28:00,
2013-11-01 22:33:00,50.4,49.8,29.73,East,91,0.0,0.0,98,0.00,,,0.00,meteohub,2013-11-02 02:33:00,
2013-11-01 22:38:00,50.4,49.8,29.73,ESE,112,2.0,0.0,98,0.00,,,0.00,meteohub,2013-11-02 02:38:00,
2013-11-01 22:43:00,50.2,49.6,29.74,West,276,0.0,4.0,98,0.00,,,0.00,meteohub,2013-11-02 02:43:00,
2013-11-01 22:49:00,49.8,49.3,29.74,ESE,122,0.0,4.0,98,0.00,,,0.00,meteohub,2013-11-02 02:49:00,
2013-11-01 22:54:00,49.6,49.1,29.74,East,95,0.0,3.0,98,0.00,,,0.00,meteohub,2013-11-02 02:54:00,
2013-11-01 22:59:00,49.3,48.7,29.74,WSW,257,0.0,1.0,98,0.00,,,0.00,meteohub,2013-11-02 02:59:00,
2013-11-01 23:04:00,49.1,48.2,29.74,North,0,0.0,1.0,97,0.00,,,0.00,meteohub,2013-11-02 03:04:00,
2013-11-01 23:09:00,48.9,48.0,29.74,North,0,0.0,1.0,97,0.00,,,0.00,meteohub,2013-11-02 03:09:00,
2013-11-01 23:14:00,48.6,47.7,29.75,North,359,0.0,1.0,97,0.00,,,0.00,meteohub,2013-11-02 03:14:00,
2013-11-01 23:19:00,48.4,47.3,29.75,NNE,16,0.0,1.0,96,0.00,,,0.00,meteohub,2013-11-02 03:19:00,
2013-11-01 23:24:00,48.2,47.3,29.75,NNW,341,0.0,0.0,97,0.00,,,0.00,meteohub,2013-11-02 03:24:00,
2013-11-01 23:29:00,48.0,47.1,29.75,East,98,0.0,0.0,97,0.00,,,0.00,meteohub,2013-11-02 03:29:00,
2013-11-01 23:34:00,47.8,46.9,29.75,East,98,0.0,1.0,97,0.00,,,0.00,meteohub,2013-11-02 03:34:00,
2013-11-01 23:39:00,47.5,46.8,29.75,East,98,0.0,1.0,97,0.00,,,0.00,meteohub,2013-11-02 03:39:00,
2013-11-01 23:44:00,47.3,46.6,29.75,West,263,0.0,1.0,97,0.00,,,0.00,meteohub,2013-11-02 03:44:00,
2013-11-01 23:49:00,47.1,46.6,29.75,North,359,0.0,1.0,98,0.00,,,0.00,meteohub,2013-11-02 03:49:00,
2013-11-01 23:54:00,47.5,46.8,29.75,West,271,0.0,0.0,97,0.00,,,0.00,meteohub,2013-11-02 03:54:00,
2013-11-01 23:59:00,47.7,46.6,29.75,SE,141,0.0,1.0,96,0.00,,,0.00,meteohub,2013-11-02 03:59:00,